Showing default

QIANFAN-32, 61565

Orbit data source: Space-Track

QIANFAN-32, 61565 is a Chinese payload satellite in LEO that was launched on Tue, 15 Oct 2024 UTC via a CHANG ZHENG 6A launch vehicle from the Taiyaun Space Center, China (TSC). Payload-class satellites include a variety of spacecraft equipped with specific instruments for various scientific and technological missions. These include communications satellites like Starlink; space stations such as the ISS; scientific satellites like the Hubble; Earth observation satellites from companies like Planet Labs, Umbra, and HawkEye 360; GPS; miniature CubeSats for education and research; and military/defense satellites.

Loading next visibility...
Identifier
61565, 2024-185P
Orbit
LEO
Country
Flag of CNCN / PRC
Related business
Manufacturer
GESIH/SECM
Mission
Operational Commercial Communications
Bus & Motor
QIANFAN, Unknown motor
Mass
267 kg wet, ~267 kg dry
Launch date (UTC)
2024-10-15 (1 year ago)
Launch vehicle
CHANG ZHENG 6A
Launch site
Taiyaun Space Center, China (TSC)
Object type
Payload
Rocket body
Debris
Shape & HBR
Box + 1 Pan, 5.0 m
Radar Cross Section
13.200 m², Large (>1 m²)

Expand to show TLE details & history
Last TLE update: 15 hours ago

TLE from 15 hours ago
0 QIANFAN-32
1 61565U 24185P   25350.31216179  .00000085  00000-0  11370-3 0  9996
2 61565  88.9854  80.6045 0010685  60.9969 299.2252 13.50736143 68524
Epoch: 2025-12-16T07:29Z
TLE epoch observation values (Epoch: 2025-12-16T07:29:30.778Z)
Latitude
0.00001°
Longitude
-116.97192°
Altitude
1,068.624 km
Speed
7.32 km/s
True Right ascension
05h 22m 25s
True Declination
0° 00' 00"
Sunlit
Object was in full shadow at epoch
Visualization orbit readout
Latitude
Unknown
Longitude
Unknown
Altitude
Unknown
Speed
Unknown
Apparent Right ascension
Unknown
Apparent Declination
Unknown
Sunlit
N/A
Visualization observer readout
Local Sidereal Time
21:16:35
Azimuth
Unknown
Elevation
Unknown
Doppler factor
Unknown
Orbital elements
Apogee altitude
1,074.558 km
Perigee altitude
1,058.648 km
Semi-major axis
7,444.74 km
Eccentricity
0.00107
Inclination
88.9854°
RAAN
80.6045°
Arg. of periapsis
60.9969°
True anomaly
299.11828°
Mean anomaly
299.2252°
Eccentric anomaly
299.17174°
Mean motion
3.37885 °/min
Orbital period
106.55 mins
BSTAR
0.0001137
Loading maneuver chart data...
Computing Atmospheric mass density...
Loading historical data...
Loading historical data...
Loading historical data...
Loading historical data...
Loading historical data...
Loading historical data...
Loading historical data...

Documentation

Showing up to 5 results
|